TimeCDT,TemperatureF,Dew PointF,Humidity,Sea Level PressureIn,VisibilityMPH,Wind Direction,Wind SpeedMPH,Gust SpeedMPH,PrecipitationIn,Events,Conditions,WindDirDegrees,DateUTC
12:15 AM,53.6,51.8,94,30.01,10.0,WNW,5.8,-,0.02,Rain,Light Rain,290,2013-09-15 05:15:00
12:35 AM,53.1,51.8,95,30.01,7.0,WNW,5.8,-,0.05,Rain,Rain,290,2013-09-15 05:35:00
12:55 AM,52.9,51.8,96,30.01,10.0,NW,4.6,-,0.08,Rain,Light Rain,320,2013-09-15 05:55:00
1:15 AM,52.7,51.8,97,30.01,10.0,NW,3.5,-,N/A,Rain,Light Rain,310,2013-09-15 06:15:00
1:35 AM,52.7,52.0,97,30.01,10.0,Calm,Calm,-,0.01,Rain,Light Rain,0,2013-09-15 06:35:00
1:55 AM,52.7,52.0,97,30.01,10.0,Calm,Calm,-,0.01,,Overcast,0,2013-09-15 06:55:00
2:15 AM,52.7,52.0,97,30.01,10.0,Calm,Calm,-,N/A,,Overcast,0,2013-09-15 07:15:00
2:35 AM,52.2,51.8,99,30.01,10.0,Calm,Calm,-,N/A,,Overcast,0,2013-09-15 07:35:00
2:55 AM,52.7,52.2,98,30.01,7.0,Calm,Calm,-,N/A,Rain,Light Rain,0,2013-09-15 07:55:00
3:15 AM,52.7,52.2,98,30.00,10.0,Calm,Calm,-,N/A,,Overcast,0,2013-09-15 08:15:00
3:35 AM,52.5,52.2,99,30.01,10.0,Calm,Calm,-,0.01,,Overcast,0,2013-09-15 08:35:00
3:55 AM,52.7,52.3,99,30.00,10.0,South,3.5,-,0.01,,Overcast,190,2013-09-15 08:55:00
4:15 AM,52.3,52.0,99,29.99,10.0,South,3.5,-,N/A,,Overcast,190,2013-09-15 09:15:00
4:35 AM,52.5,51.8,97,29.99,10.0,Calm,Calm,-,N/A,,Overcast,0,2013-09-15 09:35:00
4:55 AM,52.5,51.8,97,29.99,10.0,Calm,Calm,-,N/A,,Light Drizzle,0,2013-09-15 09:55:00
5:15 AM,52.5,51.6,97,29.99,10.0,Calm,Calm,-,N/A,Rain,Light Rain,0,2013-09-15 10:15:00
5:35 AM,52.5,51.8,97,29.99,10.0,Calm,Calm,-,N/A,,Overcast,0,2013-09-15 10:35:00
5:55 AM,52.2,51.8,99,29.99,10.0,Calm,Calm,-,N/A,,Overcast,0,2013-09-15 10:55:00
6:15 AM,52.3,51.8,98,30.01,5.0,Calm,Calm,-,0.01,Rain,Light Rain,0,2013-09-15 11:15:00
6:35 AM,52.0,50.7,95,30.01,5.0,Calm,Calm,-,0.04,Rain,Light Rain,0,2013-09-15 11:35:00
6:55 AM,51.8,50.7,96,30.01,5.0,Calm,Calm,-,0.06,Rain,Light Rain,0,2013-09-15 11:55:00
7:15 AM,51.6,50.2,95,30.01,3.0,Calm,Calm,-,0.02,Rain,Rain,0,2013-09-15 12:15:00
7:35 AM,51.3,50.4,97,30.02,5.0,Calm,Calm,-,0.04,Rain,Rain,0,2013-09-15 12:35:00
7:55 AM,51.3,50.7,98,30.01,4.0,Calm,Calm,-,0.09,Rain,Rain,0,2013-09-15 12:55:00
8:15 AM,51.1,50.5,98,30.02,5.0,Calm,Calm,-,0.02,Rain,Rain,0,2013-09-15 13:15:00
8:35 AM,51.3,50.9,99,30.02,4.0,Calm,Calm,-,0.05,Rain,Rain,0,2013-09-15 13:35:00
8:55 AM,51.4,50.2,95,30.03,10.0,Calm,Calm,-,0.07,Rain,Rain,0,2013-09-15 13:55:00
9:15 AM,51.8,50.4,95,30.03,10.0,Calm,Calm,-,N/A,,Light Drizzle,0,2013-09-15 14:15:00
9:35 AM,52.3,51.4,97,30.03,10.0,SE,3.5,-,N/A,,Light Drizzle,130,2013-09-15 14:35:00
9:55 AM,52.7,51.4,95,30.04,10.0,Calm,Calm,-,N/A,,Overcast,0,2013-09-15 14:55:00
10:15 AM,53.8,52.0,94,30.04,10.0,Calm,Calm,-,N/A,,Overcast,0,2013-09-15 15:15:00
10:35 AM,53.6,51.1,91,30.05,10.0,Calm,Calm,-,N/A,,Overcast,0,2013-09-15 15:35:00
10:55 AM,55.0,52.2,90,30.05,10.0,Calm,Calm,-,N/A,,Overcast,0,2013-09-15 15:55:00
11:15 AM,55.9,52.2,87,30.05,10.0,North,4.6,-,N/A,,Overcast,350,2013-09-15 16:15:00
11:35 AM,56.3,52.5,87,30.06,10.0,North,3.5,-,N/A,,Overcast,360,2013-09-15 16:35:00
11:55 AM,57.2,52.5,84,30.07,10.0,North,5.8,-,N/A,,Overcast,10,2013-09-15 16:55:00
12:15 PM,57.4,52.3,83,30.06,10.0,North,5.8,-,N/A,,Overcast,350,2013-09-15 17:15:00
12:35 PM,57.6,52.9,84,30.07,10.0,North,9.2,-,N/A,,Overcast,360,2013-09-15 17:35:00
12:55 PM,59.0,52.7,80,30.07,10.0,North,8.1,-,N/A,,Overcast,10,2013-09-15 17:55:00
1:15 PM,57.2,52.9,85,30.08,10.0,NNE,8.1,-,N/A,,Overcast,20,2013-09-15 18:15:00
1:35 PM,59.9,54.5,82,30.07,10.0,NE,9.2,-,N/A,,Overcast,40,2013-09-15 18:35:00
1:55 PM,59.2,53.2,81,30.08,10.0,North,11.5,-,N/A,,Overcast,10,2013-09-15 18:55:00
2:15 PM,61.5,53.1,74,30.08,10.0,NE,11.5,-,N/A,,Mostly Cloudy,50,2013-09-15 19:15:00
2:35 PM,59.5,53.2,80,30.08,10.0,NNE,8.1,-,N/A,,Overcast,30,2013-09-15 19:35:00
2:55 PM,59.0,52.9,80,30.09,10.0,North,12.7,-,N/A,,Overcast,360,2013-09-15 19:55:00
3:15 PM,55.8,53.6,92,30.10,7.0,North,11.5,-,0.01,,Light Drizzle,10,2013-09-15 20:15:00
3:35 PM,57.4,53.4,87,30.10,10.0,North,11.5,-,0.01,,Overcast,10,2013-09-15 20:35:00
3:55 PM,56.7,52.0,84,30.11,10.0,NE,10.4,-,0.01,,Overcast,40,2013-09-15 20:55:00
4:15 PM,55.8,51.1,84,30.13,10.0,NNE,11.5,-,N/A,,Overcast,20,2013-09-15 21:15:00
4:35 PM,55.9,50.2,81,30.14,10.0,North,13.8,19.6,N/A,,Overcast,10,2013-09-15 21:35:00
4:55 PM,54.5,49.5,83,30.15,10.0,NNE,15.0,19.6,N/A,,Overcast,20,2013-09-15 21:55:00
5:15 PM,53.2,48.6,84,30.16,10.0,North,16.1,20.7,N/A,,Overcast,10,2013-09-15 22:15:00
5:35 PM,52.7,48.2,85,30.17,10.0,NNE,9.2,-,N/A,,Overcast,20,2013-09-15 22:35:00
5:55 PM,52.7,47.1,81,30.19,10.0,North,13.8,19.6,N/A,,Overcast,360,2013-09-15 22:55:00
6:15 PM,51.8,46.2,81,30.20,10.0,North,12.7,-,N/A,,Overcast,10,2013-09-15 23:15:00
6:35 PM,50.9,45.7,82,30.20,10.0,North,16.1,19.6,N/A,,Overcast,10,2013-09-15 23:35:00
6:55 PM,50.0,44.6,82,30.21,10.0,North,12.7,19.6,N/A,,Overcast,10,2013-09-15 23:55:00
7:15 PM,49.6,44.1,81,30.22,10.0,North,11.5,17.3,N/A,,Overcast,10,2013-09-16 00:15:00
7:35 PM,49.3,43.9,82,30.23,10.0,NNE,9.2,-,N/A,,Overcast,20,2013-09-16 00:35:00
7:55 PM,48.6,42.3,79,30.24,10.0,NNE,11.5,-,N/A,,Overcast,20,2013-09-16 00:55:00
8:15 PM,48.2,42.1,79,30.25,10.0,NNE,12.7,-,N/A,,Overcast,30,2013-09-16 01:15:00
8:35 PM,47.5,41.7,80,30.26,10.0,NNE,10.4,-,N/A,,Overcast,20,2013-09-16 01:35:00
8:55 PM,46.8,41.2,81,30.27,10.0,NE,11.5,-,N/A,,Overcast,40,2013-09-16 01:55:00
9:15 PM,45.9,40.3,81,30.27,10.0,NE,11.5,16.1,N/A,,Overcast,40,2013-09-16 02:15:00
9:35 PM,43.7,38.7,82,30.28,10.0,NNE,6.9,-,N/A,,Scattered Clouds,20,2013-09-16 02:35:00
9:55 PM,42.1,38.3,86,30.27,10.0,NNE,5.8,-,N/A,,Clear,20,2013-09-16 02:55:00
10:15 PM,40.5,38.1,91,30.28,10.0,North,5.8,-,N/A,,Clear,360,2013-09-16 03:15:00
10:35 PM,39.7,37.8,93,30.29,10.0,North,4.6,-,N/A,,Clear,360,2013-09-16 03:35:00
10:55 PM,39.2,37.6,94,30.29,10.0,North,4.6,-,N/A,,Clear,360,2013-09-16 03:55:00
11:15 PM,38.7,37.4,95,30.29,10.0,North,4.6,-,N/A,,Clear,10,2013-09-16 04:15:00
11:35 PM,38.7,37.6,96,30.29,10.0,Calm,Calm,-,N/A,,Clear,0,2013-09-16 04:35:00
11:55 PM,38.1,36.9,95,30.30,10.0,Calm,Calm,-,N/A,,Clear,0,2013-09-16 04:55:00